Location: Powder Track
(41.8531°N, 72.3584°W)
Time: 07:15:25
(UTC+00:00)

Altair - Pass Details

Date: 30 July 2021
Orbit: 1501 x 1682 km, 47.2° (Epoch: 19 September)

Event Time Altitude Azimuth Distance (km) Brightness Sun altitude
Exits shadow 08:42:33 - 263° (W) 4,055 9.2 -10.2°
Reaches altitude 10° 08:43:39 10° 264° (W) 3,707 9.0 -10.1°
Maximum altitude 08:52:56 69° 347° (NNW) 1,603 7.7 -8.7°
Drops below altitude 10° 09:02:05 10° 71° (ENE) 3,655 11.0 -7.2°
Sets 09:05:08 0° 74° (ENE) 4,641 11.8 -6.8°
